Friday Harbor, WA

11:25 AM PDT on May 26, 2017 (GMT -0700)
Friday Harbor

Weather History for KFHR - January, 2014

Change the Weather History Date:

Tuesday, January 21, 2014

  Actual Average Record
Temperature  
Mean Temperature 40 °F -  
Max Temperature 44 °F 44 °F 55 °F (2005)
Min Temperature 35 °F 36 °F 27 °F (2008)
Degree Days  
Heating Degree Days 26    
Moisture  
Dew Point 38 °F    
Average Humidity 90    
Maximum Humidity 97    
Minimum Humidity 79    
Precipitation  
Precipitation 0.00 in - - ()
Sea Level Pressure  
Sea Level Pressure 30.30 in    
Wind  
Wind Speed 2 mph (SE)    
Max Wind Speed 8 mph    
Max Gust Speed -    
Visibility 10 miles    
Events Rain    
Averages and records for this station are not official NWS values.
T = Trace of Precipitation, MM = Missing Value Source: NWS Daily Summary

Daily Weather History Graph

Daily Weather History Graph

Search for Another Location

Airport or City:

Trip Planner

Search our weather history database for the weather conditions in past years. The results will help you decide how hot, cold, wet, or windy it might be!

Date:

Astronomy

Jan. 21, 2014 Rise Set
Actual Time 7:53 AM PST 4:53 PM PST
Civil Twilight 7:18 AM PST 5:28 PM PST
Nautical Twilight 6:40 AM PST 6:07 PM PST
Astronomical Twilight 6:03 AM PST 6:44 PM PST
Moon 11:03 PM PST (1/21) 9:57 AM PST (1/21)
Length of Visible Light 10h 09m
Length of Day
8h 59m
Waning Gibbous, 73% of the Moon is Illuminated
Jan 21
Waning Gibbous
Jan 23
Last Quarter
Jan 30
New
Feb 6
First Quarter
Feb 14
Full

Hourly Weather History & Observations

Time (PST) Temp. Windchill Dew Point Humidity Pressure Visibility Wind Dir Wind Speed Gust Speed Precip Events Conditions
12:53 AM 39.0 °F - 37.0 °F 93% 30.31 in 10.0 mi Calm Calm - N/A   Clear
1:53 AM 39.0 °F 35.7 °F 37.0 °F 93% 30.30 in 10.0 mi North 4.6 mph - N/A   Clear
2:53 AM 37.0 °F - 35.1 °F 93% 30.29 in 10.0 mi Calm Calm - N/A   Clear
3:53 AM 37.9 °F 34.4 °F 37.0 °F 97% 30.29 in 10.0 mi WNW 4.6 mph - N/A   Clear
4:53 AM 39.0 °F 35.7 °F 37.0 °F 93% 30.29 in 10.0 mi Variable 4.6 mph - N/A   Clear
5:53 AM 39.0 °F 35.7 °F 37.0 °F 93% 30.29 in 10.0 mi North 4.6 mph - N/A   Clear
6:53 AM 36.0 °F - 35.1 °F 97% 30.28 in 10.0 mi Calm Calm - N/A   Clear
7:53 AM 35.1 °F - 34.0 °F 96% 30.29 in 9.0 mi Calm Calm - N/A   Clear
8:53 AM 37.0 °F - 36.0 °F 96% 30.29 in 9.0 mi Calm Calm - N/A   Clear
9:53 AM 42.1 °F - 39.0 °F 89% 30.29 in 10.0 mi Calm Calm - N/A   Clear
10:16 AM 43.0 °F - 39.0 °F 86% 30.30 in 10.0 mi Calm Calm - N/A   Partly Cloudy
10:53 AM 44.1 °F - 37.9 °F 79% 30.31 in 10.0 mi Calm Calm - N/A   Clear
11:53 AM 43.0 °F - 39.0 °F 86% 30.30 in 10.0 mi Calm Calm - N/A   Clear
12:53 PM 44.1 °F - 39.0 °F 82% 30.27 in 10.0 mi Calm Calm - N/A   Clear
1:53 PM 44.1 °F 42.5 °F 37.9 °F 79% 30.26 in 10.0 mi SE 3.5 mph - N/A   Clear
2:53 PM 43.0 °F 40.3 °F 37.9 °F 82% 30.27 in 10.0 mi SE 4.6 mph - N/A   Clear
3:53 PM 42.1 °F 38.4 °F 37.9 °F 85% 30.27 in 10.0 mi SW 5.8 mph - N/A   Clear
4:21 PM 41.0 °F 39.0 °F 37.9 °F 89% 30.26 in 10.0 mi Variable 3.5 mph - N/A   Partly Cloudy
4:53 PM 41.0 °F 39.0 °F 37.9 °F 89% 30.29 in 10.0 mi SW 3.5 mph - N/A   Partly Cloudy
5:53 PM 39.9 °F - 37.9 °F 93% 30.29 in 10.0 mi Calm Calm - N/A   Scattered Clouds
6:53 PM 41.0 °F 39.0 °F 39.0 °F 93% 30.28 in 9.0 mi ENE 3.5 mph - N/A   Scattered Clouds
7:32 PM 41.0 °F 39.0 °F 37.9 °F 89% 30.30 in 9.0 mi SSE 3.5 mph - N/A   Mostly Cloudy
7:53 PM 41.0 °F 37.1 °F 37.9 °F 89% 30.30 in 8.0 mi ESE 5.8 mph - N/A   Mostly Cloudy
8:03 PM 42.1 °F 37.1 °F 39.0 °F 89% 30.29 in 9.0 mi SE 8.1 mph - N/A   Overcast
8:12 PM 42.1 °F 39.2 °F 39.0 °F 89% 30.31 in 8.0 mi SE 4.6 mph - N/A   Overcast
8:33 PM 42.1 °F 40.2 °F 39.0 °F 89% 30.31 in 9.0 mi SSW 3.5 mph - N/A   Overcast
8:53 PM 39.9 °F - 37.9 °F 93% 30.33 in 9.0 mi Calm Calm - N/A   Scattered Clouds
9:08 PM 39.9 °F - 37.9 °F 93% 30.33 in 9.0 mi Calm Calm - N/A   Scattered Clouds
9:53 PM 39.9 °F 37.8 °F 37.9 °F 93% 30.32 in 9.0 mi Variable 3.5 mph - N/A   Overcast
10:53 PM 41.0 °F - 39.0 °F 93% 30.33 in 9.0 mi Calm Calm - N/A   Overcast
11:53 PM 42.1 °F - 39.9 °F 92% 30.34 in 9.0 mi Calm Calm - 0.00 in Rain Light Rain